�������r�C�����j�^�v���󋵏��
Date,Time,5�C6���@���p�r�C��,����,����(m/s)
2023/11/14,00:00,3.7,���k��,4.2
2023/11/14,00:10,3.7,�k��,6.2
2023/11/14,00:20,3.6,���k��,8.9
2023/11/14,00:30,3.7,�k��,7.1
2023/11/14,00:40,3.8,���k��,5.4
2023/11/14,00:50,3.7,���k��,4.7
2023/11/14,01:00,3.8,���k��,5.1
2023/11/14,01:10,3.7,���k��,7.3
2023/11/14,01:20,3.6,���k��,8.9
2023/11/14,01:30,3.7,���k��,8.2
2023/11/14,01:40,3.8,���k��,7.2
2023/11/14,01:50,3.6,���k��,7.7
2023/11/14,02:00,3.4,���k��,7.2
2023/11/14,02:10,3.8,���k��,6.5
2023/11/14,02:20,3.7,���k��,7.4
2023/11/14,02:30,3.6,���k��,7.3
2023/11/14,02:40,3.6,���k��,7.0
2023/11/14,02:50,3.6,�k��,7.0
2023/11/14,03:00,3.7,�k�k��,6.6
2023/11/14,03:10,3.7,�k��,5.5
2023/11/14,03:20,3.7,�k��,5.1
2023/11/14,03:30,3.6,���k��,4.8
2023/11/14,03:40,3.8,���k��,4.6
2023/11/14,03:50,3.6,���k��,4.4
2023/11/14,04:00,3.8,��,4.1
2023/11/14,04:10,3.6,��,5.9
2023/11/14,04:20,3.9,��,6.9
2023/11/14,04:30,3.7,��,6.8
2023/11/14,04:40,3.6,��,4.8
2023/11/14,04:50,3.9,��,4.0
2023/11/14,05:00,3.7,��,3.4
2023/11/14,05:10,3.6,��,3.3
2023/11/14,05:20,3.6,��,3.1
2023/11/14,05:30,3.7,���쐼,2.5
2023/11/14,05:40,3.6,���쐼,1.9
2023/11/14,05:50,3.5,���쐼,2.9
2023/11/14,06:00,3.5,���쐼,3.1
2023/11/14,06:10,3.7,�쐼,3.1
2023/11/14,06:20,3.7,��쐼,2.6
2023/11/14,06:30,3.7,�쐼,4.7
2023/11/14,06:40,3.8,�쐼,4.8
2023/11/14,06:50,3.7,�쐼,4.1
2023/11/14,07:00,3.6,�쐼,3.1
2023/11/14,07:10,3.6,�쐼,2.3
2023/11/14,07:20,3.6,�쐼,2.3
2023/11/14,07:30,3.8,�쐼,2.6
2023/11/14,07:40,3.7,���쐼,2.3
2023/11/14,07:50,3.7,���쐼,2.3
2023/11/14,08:00,3.7,�쐼,2.0
2023/11/14,08:10,3.6,�쐼,1.9
2023/11/14,08:20,3.7,���쐼,2.0
2023/11/14,08:30,3.8,���쐼,2.0
2023/11/14,08:40,3.7,���쐼,2.3
2023/11/14,08:50,3.7,�쐼,2.5
2023/11/14,09:00,3.6,���쐼,2.6
2023/11/14,09:10,3.9,��,2.3
2023/11/14,09:20,3.7,��,3.3
2023/11/14,09:30,3.8,���쐼,2.6
2023/11/14,09:40,3.7,��,2.8
2023/11/14,09:50,3.6,��,1.9
2023/11/14,10:00,3.9,�쐼,4.1
2023/11/14,10:10,3.8,���쐼,4.9
2023/11/14,10:20,3.6,��,5.1
2023/11/14,10:30,3.6,���k��,5.9
2023/11/14,10:40,3.8,���쐼,4.7
2023/11/14,10:50,3.7,���쐼,4.5
2023/11/14,11:00,3.6,���쐼,6.3
2023/11/14,11:10,3.6,��,5.6
2023/11/14,11:20,3.5,��,7.1
2023/11/14,11:30,3.6,��,6.3
2023/11/14,11:40,3.7,��,6.9
2023/11/14,11:50,3.5,��,6.6
2023/11/14,12:00,3.6,��,6.0
2023/11/14,12:10,3.6,�k��,3.3
2023/11/14,12:20,3.6,�k�k��,6.9
2023/11/14,12:30,3.4,�k�k��,4.9
2023/11/14,12:40,3.7,�k�k��,3.7
2023/11/14,12:50,3.6,�k�k��,2.5
2023/11/14,13:00,3.7,�k,2.9
2023/11/14,13:10,3.6,�k,3.7
2023/11/14,13:20,3.9,�k�k��,3.8
2023/11/14,13:30,3.7,�k�k��,3.4
2023/11/14,13:40,3.4,�k,3.9
2023/11/14,13:50,3.6,�k�k��,3.4
2023/11/14,14:00,3.7,�k,3.6
2023/11/14,14:10,3.8,�k,3.8
2023/11/14,14:20,3.6,�k,4.0
2023/11/14,14:30,3.8,�k�k��,2.9
2023/11/14,14:40,3.7,�k,3.6
2023/11/14,14:50,3.9,�k,3.2
2023/11/14,15:00,3.6,�k,3.2
2023/11/14,15:10,3.6,�k�k��,3.7
2023/11/14,15:20,3.7,�k�k��,4.1
2023/11/14,15:30,3.6,�k�k��,4.1
2023/11/14,15:40,3.6,�k�k��,3.6
2023/11/14,15:50,3.6,�k�k��,2.6
2023/11/14,16:00,3.6,�k��,2.3
2023/11/14,16:10,3.6,�k�k��,2.5
2023/11/14,16:20,3.6,�k��,2.5
2023/11/14,16:30,3.8,�k��,2.2
2023/11/14,16:40,3.8,�k��,2.0
2023/11/14,16:50,3.8,�k��,3.2
2023/11/14,17:00,3.7,�k��,3.3
2023/11/14,17:10,3.6,�k��,3.3
2023/11/14,17:20,3.6,�k��,3.4
2023/11/14,17:30,3.7,���k��,3.2
2023/11/14,17:40,3.7,���k��,3.2
2023/11/14,17:50,3.6,�k��,3.4
2023/11/14,18:00,3.7,�k��,4.0
2023/11/14,18:10,3.6,�k��,4.7
2023/11/14,18:20,3.7,���k��,4.7
2023/11/14,18:30,3.5,���k��,6.1
2023/11/14,18:40,3.7,���k��,3.0
2023/11/14,18:50,3.8,���k��,3.2
2023/11/14,19:00,3.7,���k��,2.9
2023/11/14,19:10,3.7,���k��,4.1
2023/11/14,19:20,3.6,���k��,4.9
2023/11/14,19:30,3.9,���k��,5.3
2023/11/14,19:40,3.7,���k��,6.4
2023/11/14,19:50,3.9,�k��,7.5
2023/11/14,20:00,3.7,���k��,5.2
2023/11/14,20:10,3.6,���k��,5.3
2023/11/14,20:20,3.6,���k��,5.2
2023/11/14,20:30,3.6,���k��,4.9
2023/11/14,20:40,3.4,���k��,6.9
2023/11/14,20:50,3.8,���k��,6.6
2023/11/14,21:00,3.7,���k��,6.1
2023/11/14,21:10,3.7,���k��,6.6
2023/11/14,21:20,3.6,���k��,6.3
2023/11/14,21:30,3.7,���k��,5.2
2023/11/14,21:40,3.6,���k��,5.2
2023/11/14,21:50,3.6,���k��,4.2
2023/11/14,22:00,3.7,�k��,5.3
2023/11/14,22:10,3.7,�k��,5.4
2023/11/14,22:20,3.7,�k��,5.5
2023/11/14,22:30,3.8,�k��,5.5
2023/11/14,22:40,3.7,�k��,4.6
2023/11/14,22:50,3.6,�k��,4.8
2023/11/14,23:00,3.7,�k��,5.0
2023/11/14,23:10,3.7,�k��,4.7
2023/11/14,23:20,3.6,�k��,4.5
2023/11/14,23:30,3.6,�k��,4.1
2023/11/14,23:40,3.6,�k��,4.5
2023/11/14,23:50,3.7,�k��,4.7
